Year,Month,Day,Hour,Minute,Value (Times are PST for temperature in C)
2018,04,26,00,00,10.20
2018,04,26,00,01,10.20
2018,04,26,00,02,10.20
2018,04,26,00,03,10.20
2018,04,26,00,04,10.20
2018,04,26,00,05,10.20
2018,04,26,00,06,10.20
2018,04,26,00,07,10.30
2018,04,26,00,08,10.30
2018,04,26,00,09,10.30
2018,04,26,00,10,10.30
2018,04,26,00,11,10.30
2018,04,26,00,12,10.30
2018,04,26,00,13,10.30
2018,04,26,00,14,10.30
2018,04,26,00,15,10.30
2018,04,26,00,16,10.30
2018,04,26,00,17,10.30
2018,04,26,00,18,10.30
2018,04,26,00,19,10.30
2018,04,26,00,20,10.40
2018,04,26,00,21,10.40
2018,04,26,00,22,10.50
2018,04,26,00,23,10.50
2018,04,26,00,24,10.50
2018,04,26,00,25,10.60
2018,04,26,00,26,10.60
2018,04,26,00,27,10.60
2018,04,26,00,28,10.60
2018,04,26,00,29,10.60
2018,04,26,00,30,10.60
2018,04,26,00,31,10.60
2018,04,26,00,32,10.60
2018,04,26,00,33,10.60
2018,04,26,00,34,10.60
2018,04,26,00,35,10.60
2018,04,26,00,36,10.60
2018,04,26,00,37,10.60
2018,04,26,00,38,10.60
2018,04,26,00,39,10.60
2018,04,26,00,40,10.60
2018,04,26,00,41,10.60
2018,04,26,00,42,10.60
2018,04,26,00,43,10.50
2018,04,26,00,44,10.50
2018,04,26,00,45,10.40
2018,04,26,00,46,10.40
2018,04,26,00,47,10.40
2018,04,26,00,48,10.40
2018,04,26,00,49,10.30
2018,04,26,00,50,10.30
2018,04,26,00,51,10.30
2018,04,26,00,52,10.30
2018,04,26,00,53,10.20
2018,04,26,00,54,10.20
2018,04,26,00,55,10.20
2018,04,26,00,56,10.20
2018,04,26,00,57,10.10
2018,04,26,00,58,10.10
2018,04,26,00,59,10.10
2018,04,26,01,00,10.10
2018,04,26,01,01,10.10
2018,04,26,01,02,10.00
2018,04,26,01,03,10.00
2018,04,26,01,04,10.00
2018,04,26,01,05,9.90
2018,04,26,01,06,9.90
2018,04,26,01,07,9.90
2018,04,26,01,08,9.90
2018,04,26,01,09,9.80
2018,04,26,01,10,9.80
2018,04,26,01,11,9.80
2018,04,26,01,12,9.80
2018,04,26,01,13,9.80
2018,04,26,01,14,9.80
2018,04,26,01,15,9.80
2018,04,26,01,16,9.70
2018,04,26,01,17,9.70
2018,04,26,01,18,9.70
2018,04,26,01,19,9.70
2018,04,26,01,20,9.70
2018,04,26,01,21,9.60
2018,04,26,01,22,9.60
2018,04,26,01,23,9.60
2018,04,26,01,24,9.60
2018,04,26,01,25,9.50
2018,04,26,01,26,9.50
2018,04,26,01,27,9.50
2018,04,26,01,28,9.40
2018,04,26,01,29,9.40
2018,04,26,01,30,9.40
2018,04,26,01,31,9.40
2018,04,26,01,32,9.30
2018,04,26,01,33,9.30
2018,04,26,01,34,9.30
2018,04,26,01,35,9.30
2018,04,26,01,36,9.30
2018,04,26,01,37,9.30
2018,04,26,01,38,9.20
2018,04,26,01,39,9.20
2018,04,26,01,40,9.20
2018,04,26,01,41,9.20
2018,04,26,01,42,9.20
2018,04,26,01,43,9.20
2018,04,26,01,44,9.20
2018,04,26,01,45,9.10
2018,04,26,01,46,9.10
2018,04,26,01,47,9.10
2018,04,26,01,48,9.10
2018,04,26,01,49,9.10
2018,04,26,01,50,9.00
2018,04,26,01,51,9.00
2018,04,26,01,52,9.00
2018,04,26,01,53,9.00
2018,04,26,01,54,9.00
2018,04,26,01,55,8.90
2018,04,26,01,56,8.90
2018,04,26,01,57,8.90
2018,04,26,01,58,8.90
2018,04,26,01,59,8.90
2018,04,26,02,00,8.90
2018,04,26,02,01,8.90
2018,04,26,02,02,8.90
2018,04,26,02,03,8.90
2018,04,26,02,04,8.90
2018,04,26,02,05,8.90
2018,04,26,02,06,8.90
2018,04,26,02,07,8.90
2018,04,26,02,08,8.90
2018,04,26,02,09,9.00
2018,04,26,02,10,9.00
2018,04,26,02,11,9.00
2018,04,26,02,12,9.00
2018,04,26,02,13,9.00
2018,04,26,02,14,9.00
2018,04,26,02,15,9.00
2018,04,26,02,16,9.00
2018,04,26,02,17,9.00
2018,04,26,02,18,9.00
2018,04,26,02,19,9.00
2018,04,26,02,20,9.00
2018,04,26,02,21,9.10
2018,04,26,02,22,9.10
2018,04,26,02,23,9.10
2018,04,26,02,24,9.10
2018,04,26,02,25,9.10
2018,04,26,02,26,9.10
2018,04,26,02,27,9.10
2018,04,26,02,28,9.10
2018,04,26,02,29,9.10
2018,04,26,02,30,9.10
2018,04,26,02,31,9.10
2018,04,26,02,32,9.10
2018,04,26,02,33,9.10
2018,04,26,02,34,9.10
2018,04,26,02,35,9.10
2018,04,26,02,36,9.10
2018,04,26,02,37,9.10
2018,04,26,02,38,9.10
2018,04,26,02,39,9.00
2018,04,26,02,40,9.00
2018,04,26,02,41,9.00
2018,04,26,02,42,8.90
2018,04,26,02,43,8.90
2018,04,26,02,44,8.90
2018,04,26,02,45,8.80
2018,04,26,02,46,8.80
2018,04,26,02,47,8.80
2018,04,26,02,48,8.80
2018,04,26,02,49,8.80
2018,04,26,02,50,8.70
2018,04,26,02,51,8.70
2018,04,26,02,52,8.70
2018,04,26,02,53,8.70
2018,04,26,02,54,8.70
2018,04,26,02,55,8.60
2018,04,26,02,56,8.60
2018,04,26,02,57,8.60
2018,04,26,02,58,8.50
2018,04,26,02,59,8.50
2018,04,26,03,00,8.50
2018,04,26,03,01,8.50
2018,04,26,03,02,8.40
2018,04,26,03,06,8.30
2018,04,26,03,07,8.30
2018,04,26,03,08,8.30
2018,04,26,03,09,8.30
2018,04,26,03,10,8.30
2018,04,26,03,11,8.20
2018,04,26,03,12,8.20
2018,04,26,03,13,8.20
2018,04,26,03,14,8.20
2018,04,26,03,15,8.20
2018,04,26,03,16,8.10
2018,04,26,03,17,8.10
2018,04,26,03,18,8.10
2018,04,26,03,19,8.10
2018,04,26,03,20,8.00
2018,04,26,03,21,8.00
2018,04,26,03,22,8.00
2018,04,26,03,23,8.00
2018,04,26,03,24,7.90
2018,04,26,03,25,7.90
2018,04,26,03,26,7.90
2018,04,26,03,27,7.90
2018,04,26,03,28,7.90
2018,04,26,03,29,7.90
2018,04,26,03,30,7.90
2018,04,26,03,31,7.90
2018,04,26,03,32,7.90
2018,04,26,03,33,7.90
2018,04,26,03,34,7.90
2018,04,26,03,35,7.90
2018,04,26,03,36,7.90
2018,04,26,03,37,7.90
2018,04,26,03,38,7.90
2018,04,26,03,39,7.80
2018,04,26,03,40,7.80
2018,04,26,03,41,7.80
2018,04,26,03,42,7.80
2018,04,26,03,43,7.80
2018,04,26,03,44,7.80
2018,04,26,03,45,7.80
2018,04,26,03,46,7.80
2018,04,26,03,47,7.80
2018,04,26,03,48,7.80
2018,04,26,03,49,7.80
2018,04,26,03,50,7.80
2018,04,26,03,51,7.80
2018,04,26,03,52,7.80
2018,04,26,03,53,7.80
2018,04,26,03,54,7.80
2018,04,26,03,55,7.80
2018,04,26,03,56,7.80
2018,04,26,03,57,7.80
2018,04,26,03,58,7.70
2018,04,26,03,59,7.70
2018,04,26,04,00,7.70
2018,04,26,04,01,7.70
2018,04,26,04,02,7.70
2018,04,26,04,03,7.70
2018,04,26,04,04,7.70
2018,04,26,04,05,7.70
2018,04,26,04,06,7.70
2018,04,26,04,07,7.70
2018,04,26,04,08,7.70
2018,04,26,04,09,7.70
2018,04,26,04,10,7.70
2018,04,26,04,11,7.70
2018,04,26,04,12,7.70
2018,04,26,04,13,7.60
2018,04,26,04,14,7.60
2018,04,26,04,15,7.60
2018,04,26,04,16,7.60
2018,04,26,04,17,7.60
2018,04,26,04,18,7.50
2018,04,26,04,19,7.50
2018,04,26,04,20,7.50
2018,04,26,04,21,7.50
2018,04,26,04,22,7.50
2018,04,26,04,23,7.40
2018,04,26,04,24,7.40
2018,04,26,04,25,7.40
2018,04,26,04,26,7.40
2018,04,26,04,27,7.40
2018,04,26,04,28,7.30
2018,04,26,04,29,7.30
2018,04,26,04,30,7.30
2018,04,26,04,31,7.30
2018,04,26,04,32,7.30
2018,04,26,04,33,7.30
2018,04,26,04,34,7.30
2018,04,26,04,35,7.20
2018,04,26,04,36,7.30
2018,04,26,04,37,7.20
2018,04,26,04,38,7.20
2018,04,26,04,39,7.30
2018,04,26,04,40,7.30
2018,04,26,04,41,7.30
2018,04,26,04,42,7.30
2018,04,26,04,43,7.20
2018,04,26,04,44,7.20
2018,04,26,04,45,7.20
2018,04,26,04,46,7.20
2018,04,26,04,47,7.20
2018,04,26,04,48,7.20
2018,04,26,04,49,7.20
2018,04,26,04,50,7.20
2018,04,26,04,51,7.10
2018,04,26,04,52,7.10
2018,04,26,04,53,7.10
2018,04,26,04,54,7.10
2018,04,26,04,55,7.10
2018,04,26,04,56,7.10
2018,04,26,04,57,7.10
2018,04,26,04,58,7.10
2018,04,26,04,59,7.10
2018,04,26,05,00,7.10
2018,04,26,05,01,7.10
2018,04,26,05,02,7.00
2018,04,26,05,03,7.00
2018,04,26,05,04,7.00
2018,04,26,05,05,7.00
2018,04,26,05,06,7.00
2018,04,26,05,07,6.90
2018,04,26,05,08,6.90
2018,04,26,05,09,6.90
2018,04,26,05,10,6.90
2018,04,26,05,11,6.90
2018,04,26,05,12,6.90
2018,04,26,05,13,6.90
2018,04,26,05,14,7.00
2018,04,26,05,15,7.00
2018,04,26,05,16,7.00
2018,04,26,05,17,7.00
2018,04,26,05,18,7.10
2018,04,26,05,19,7.10
2018,04,26,05,20,7.10
2018,04,26,05,21,7.10
2018,04,26,05,22,7.10
2018,04,26,05,23,7.10
2018,04,26,05,24,7.10
2018,04,26,05,25,7.10
2018,04,26,05,26,7.10
2018,04,26,05,27,7.10
2018,04,26,05,28,7.20
2018,04,26,05,29,7.20
2018,04,26,05,30,7.20
2018,04,26,05,31,7.20
2018,04,26,05,32,7.20
2018,04,26,05,33,7.20
2018,04,26,05,34,7.20
2018,04,26,05,35,7.20
2018,04,26,05,36,7.10
2018,04,26,05,37,7.10
2018,04,26,05,38,7.10
2018,04,26,05,39,7.10
2018,04,26,05,40,7.10
2018,04,26,05,41,7.00
2018,04,26,05,42,7.00
2018,04,26,05,43,7.00
2018,04,26,05,44,7.00
2018,04,26,05,45,6.90
2018,04,26,05,46,6.90
2018,04,26,05,47,6.90
2018,04,26,05,48,6.90
2018,04,26,05,49,6.90
2018,04,26,05,50,6.80
2018,04,26,05,51,6.80
2018,04,26,05,52,6.80
2018,04,26,05,53,6.80
2018,04,26,05,54,6.80
2018,04,26,05,55,6.80
2018,04,26,05,56,6.80
2018,04,26,05,57,6.80
2018,04,26,05,58,6.80
2018,04,26,05,59,6.80
2018,04,26,06,00,6.80
2018,04,26,06,01,6.80
2018,04,26,06,02,6.70
2018,04,26,06,03,6.70
2018,04,26,06,04,6.70
2018,04,26,06,05,6.70
2018,04,26,06,06,6.70
2018,04,26,06,07,6.70
2018,04,26,06,08,6.70
2018,04,26,06,09,6.70
2018,04,26,06,10,6.70
2018,04,26,06,11,6.70
2018,04,26,06,12,6.70
2018,04,26,06,13,6.70
2018,04,26,06,14,6.70
2018,04,26,06,15,6.70
2018,04,26,06,16,6.70
2018,04,26,06,17,6.80
2018,04,26,06,18,6.80
2018,04,26,06,19,6.80
2018,04,26,06,20,6.80
2018,04,26,06,21,6.80
2018,04,26,06,22,6.80
2018,04,26,06,23,6.80
2018,04,26,06,24,6.80
2018,04,26,06,25,6.80
2018,04,26,06,26,6.80
2018,04,26,06,27,6.80
2018,04,26,06,28,6.80
2018,04,26,06,29,6.80
2018,04,26,06,30,6.80
2018,04,26,06,31,6.80
2018,04,26,06,32,6.80
2018,04,26,06,33,6.80
2018,04,26,06,34,6.80
2018,04,26,06,35,6.80
2018,04,26,06,36,6.80
2018,04,26,06,37,6.80
2018,04,26,06,38,6.80
2018,04,26,06,39,6.80
2018,04,26,06,40,6.90
2018,04,26,06,41,6.90
2018,04,26,06,42,6.90
2018,04,26,06,43,6.90
2018,04,26,06,44,6.90
2018,04,26,06,45,6.90
2018,04,26,06,46,7.00
2018,04,26,06,47,7.00
2018,04,26,06,48,7.00
2018,04,26,06,49,7.00
2018,04,26,06,50,7.00
2018,04,26,06,51,7.10
2018,04,26,06,52,7.10
2018,04,26,06,53,7.10
2018,04,26,06,54,7.10
2018,04,26,06,55,7.10
2018,04,26,06,56,7.10
2018,04,26,06,57,7.10
2018,04,26,06,58,7.10
2018,04,26,06,59,7.10
2018,04,26,07,00,7.10
2018,04,26,07,01,7.10
2018,04,26,07,02,7.20
2018,04,26,07,03,7.20
2018,04,26,07,04,7.20
2018,04,26,07,05,7.20
2018,04,26,07,06,7.20
2018,04,26,07,07,7.30
2018,04,26,07,08,7.30
2018,04,26,07,09,7.30
2018,04,26,07,10,7.30
2018,04,26,07,11,7.40
2018,04,26,07,12,7.40
2018,04,26,07,13,7.40
2018,04,26,07,14,7.50
2018,04,26,07,15,7.60
2018,04,26,07,16,7.60
2018,04,26,07,17,7.70
2018,04,26,07,18,7.70
2018,04,26,07,19,7.70
2018,04,26,07,20,7.80
2018,04,26,07,21,7.80
2018,04,26,07,22,7.90
2018,04,26,07,23,7.90
2018,04,26,07,24,8.00
2018,04,26,07,25,8.00
2018,04,26,07,26,8.10
2018,04,26,07,27,8.20
2018,04,26,07,28,8.20
2018,04,26,07,29,8.30
2018,04,26,07,30,8.40
2018,04,26,07,31,8.50
2018,04,26,07,32,8.60
2018,04,26,07,33,8.70
2018,04,26,07,34,8.80
2018,04,26,07,35,8.80
2018,04,26,07,36,8.90
2018,04,26,07,37,9.00
2018,04,26,07,38,9.00
2018,04,26,07,39,9.10
2018,04,26,07,40,9.20
2018,04,26,07,41,9.30
2018,04,26,07,42,9.30
2018,04,26,07,43,9.40
2018,04,26,07,44,9.50
2018,04,26,07,45,9.50
2018,04,26,07,46,9.60
2018,04,26,07,47,9.70
2018,04,26,07,48,9.80
2018,04,26,07,49,9.80
2018,04,26,07,50,9.90
2018,04,26,07,51,10.00
2018,04,26,07,52,10.10
2018,04,26,07,53,10.20
2018,04,26,07,54,10.30
2018,04,26,07,55,10.50
2018,04,26,07,56,10.60
2018,04,26,07,57,10.60
2018,04,26,07,58,10.70
2018,04,26,07,59,10.80
2018,04,26,08,00,10.90
2018,04,26,08,01,11.00
2018,04,26,08,02,11.00
2018,04,26,08,03,11.10
2018,04,26,08,04,11.20
2018,04,26,08,05,11.30
2018,04,26,08,06,11.30
2018,04,26,08,07,11.40
2018,04,26,08,08,11.50
2018,04,26,08,09,11.50
2018,04,26,08,10,11.60
2018,04,26,08,11,11.70
2018,04,26,08,12,11.80
2018,04,26,08,13,11.90
2018,04,26,08,14,12.00
2018,04,26,08,15,12.10
2018,04,26,08,16,12.20
2018,04,26,08,17,12.40
2018,04,26,08,18,12.50
2018,04,26,08,19,12.60
2018,04,26,08,20,12.70
2018,04,26,08,21,12.80
2018,04,26,08,22,13.00
2018,04,26,08,23,13.10
2018,04,26,08,24,13.20
2018,04,26,08,25,13.30
2018,04,26,08,26,13.50
2018,04,26,08,27,13.60
2018,04,26,08,28,13.80
2018,04,26,08,29,13.90
2018,04,26,08,30,14.00
2018,04,26,08,31,14.10
2018,04,26,08,32,14.20
2018,04,26,08,33,14.30
2018,04,26,08,34,14.40
2018,04,26,08,35,14.50
2018,04,26,08,36,14.60
2018,04,26,08,37,14.60
2018,04,26,08,38,14.70
2018,04,26,08,39,14.70
2018,04,26,08,40,14.80
2018,04,26,08,41,14.80
2018,04,26,08,42,14.80
2018,04,26,08,43,14.90
2018,04,26,08,44,14.90
2018,04,26,08,45,14.90
2018,04,26,08,46,14.90
2018,04,26,08,47,14.90
2018,04,26,08,48,14.90
2018,04,26,08,49,14.90
2018,04,26,08,50,14.90
2018,04,26,08,51,14.90
2018,04,26,08,52,14.90
2018,04,26,08,53,15.00
2018,04,26,08,54,15.00
2018,04,26,08,55,15.00
2018,04,26,08,56,15.10
2018,04,26,08,57,15.10
2018,04,26,08,58,15.10
2018,04,26,08,59,15.10
2018,04,26,09,00,15.20
2018,04,26,09,01,15.20
2018,04,26,09,02,15.20
2018,04,26,09,03,15.30
2018,04,26,09,04,15.30
2018,04,26,09,05,15.30
2018,04,26,09,06,15.40
2018,04,26,09,07,15.40
2018,04,26,09,08,15.40
2018,04,26,09,09,15.50
2018,04,26,09,10,15.60
2018,04,26,09,11,15.60
2018,04,26,09,12,15.70
2018,04,26,09,13,15.70
2018,04,26,09,14,15.80
2018,04,26,09,15,15.80
2018,04,26,09,16,15.90
2018,04,26,09,17,15.90
2018,04,26,09,18,16.00
2018,04,26,09,19,16.10
2018,04,26,09,20,16.10
2018,04,26,09,21,16.20
2018,04,26,09,22,16.30
2018,04,26,09,23,16.30
2018,04,26,09,24,16.40
2018,04,26,09,25,16.40
2018,04,26,09,26,16.50
2018,04,26,09,27,16.50
2018,04,26,09,28,16.60
2018,04,26,09,29,16.60
2018,04,26,09,30,16.70
2018,04,26,09,31,16.80
2018,04,26,09,32,16.80
2018,04,26,09,33,16.90
2018,04,26,09,34,16.90
2018,04,26,09,35,17.00
2018,04,26,09,36,17.10
2018,04,26,09,37,17.10
2018,04,26,09,38,17.10
2018,04,26,09,39,17.20
2018,04,26,09,40,17.20
2018,04,26,09,41,17.20
2018,04,26,09,42,17.30
2018,04,26,09,43,17.30
2018,04,26,09,44,17.30
2018,04,26,09,45,17.40
2018,04,26,09,46,17.40
2018,04,26,09,47,17.40
2018,04,26,09,48,17.40
2018,04,26,09,49,17.50
2018,04,26,09,50,17.60
2018,04,26,09,51,17.60
2018,04,26,09,52,17.60
2018,04,26,09,53,17.70
2018,04,26,09,54,17.70
2018,04,26,09,55,17.80
2018,04,26,09,56,17.80
2018,04,26,09,57,17.80
2018,04,26,09,58,17.90
2018,04,26,09,59,17.90
2018,04,26,10,00,18.00
2018,04,26,10,01,18.00
2018,04,26,10,02,18.10
2018,04,26,10,03,18.10
2018,04,26,10,04,18.10
2018,04,26,10,05,18.20
2018,04,26,10,06,18.20
2018,04,26,10,07,18.20
2018,04,26,10,08,18.20
2018,04,26,10,09,18.30
2018,04,26,10,10,18.30
2018,04,26,10,11,18.30
2018,04,26,10,12,18.30
2018,04,26,10,13,18.40
2018,04,26,10,14,18.40
2018,04,26,10,15,18.50
2018,04,26,10,16,18.50
2018,04,26,10,17,18.60
2018,04,26,10,18,18.70
2018,04,26,10,19,18.70
2018,04,26,10,20,18.80
2018,04,26,10,21,18.90
2018,04,26,10,22,19.00
2018,04,26,10,23,19.00
2018,04,26,10,24,19.10
2018,04,26,10,25,19.10
2018,04,26,10,26,19.10
2018,04,26,10,27,19.10
2018,04,26,10,28,19.10
2018,04,26,10,29,19.10
2018,04,26,10,30,19.10
2018,04,26,10,31,19.10
2018,04,26,10,32,19.10
2018,04,26,10,33,19.10
2018,04,26,10,34,19.10
2018,04,26,10,35,19.10
2018,04,26,10,36,19.10
2018,04,26,10,37,19.10
2018,04,26,10,38,19.10
2018,04,26,10,39,19.10
2018,04,26,10,40,19.10
2018,04,26,10,41,19.00
2018,04,26,10,42,19.00
2018,04,26,10,43,19.00
2018,04,26,10,44,19.00
2018,04,26,10,45,19.00
2018,04,26,10,46,18.90
2018,04,26,10,47,18.80
2018,04,26,10,48,18.80
2018,04,26,10,49,18.80
2018,04,26,10,50,18.80
2018,04,26,10,51,18.90
2018,04,26,10,52,18.90
2018,04,26,10,53,18.90
2018,04,26,10,54,18.90
2018,04,26,10,55,19.00
2018,04,26,10,56,19.00
2018,04,26,10,57,19.00
2018,04,26,10,58,19.00
2018,04,26,10,59,19.00
2018,04,26,11,00,19.00
2018,04,26,11,01,19.00
2018,04,26,11,02,19.10
2018,04,26,11,03,19.10
2018,04,26,11,04,19.20
2018,04,26,11,05,19.20
2018,04,26,11,06,19.30
2018,04,26,11,07,19.30
2018,04,26,11,08,19.30
2018,04,26,11,09,19.30
2018,04,26,11,10,19.40
2018,04,26,11,11,19.40
2018,04,26,11,12,19.40
2018,04,26,11,13,19.40
2018,04,26,11,14,19.40
2018,04,26,11,15,19.50
2018,04,26,11,16,19.50
2018,04,26,11,17,19.60
2018,04,26,11,18,19.70
2018,04,26,11,19,19.70
2018,04,26,11,20,19.70
2018,04,26,11,21,19.80
2018,04,26,11,22,19.80
2018,04,26,11,23,19.80
2018,04,26,11,24,19.80
2018,04,26,11,25,19.90
2018,04,26,11,26,20.00
2018,04,26,11,27,20.00
2018,04,26,11,28,20.10
2018,04,26,11,29,20.10
2018,04,26,11,30,20.20
2018,04,26,11,31,20.30
2018,04,26,11,32,20.40
2018,04,26,11,33,20.50
2018,04,26,11,34,20.50
2018,04,26,11,35,20.60
2018,04,26,11,36,20.70
2018,04,26,11,37,20.80
2018,04,26,11,38,20.90
2018,04,26,11,39,20.90
2018,04,26,11,40,20.90
2018,04,26,11,41,20.90
2018,04,26,11,42,20.90
2018,04,26,11,43,21.00
2018,04,26,11,44,21.00
2018,04,26,11,45,21.10
2018,04,26,11,46,21.00
2018,04,26,11,47,21.00
2018,04,26,11,48,20.90
2018,04,26,11,49,20.90
2018,04,26,11,50,20.90
2018,04,26,11,51,21.00
2018,04,26,11,52,21.00
2018,04,26,11,53,21.10
2018,04,26,11,54,21.10
2018,04,26,11,55,21.10
2018,04,26,11,56,21.10
2018,04,26,11,57,21.10
2018,04,26,11,58,21.10
2018,04,26,11,59,21.10
2018,04,26,12,00,21.10
2018,04,26,12,01,21.20
2018,04,26,12,02,21.30
2018,04,26,12,03,21.40
2018,04,26,12,04,21.50
2018,04,26,12,05,21.60
2018,04,26,12,06,21.60
2018,04,26,12,07,21.80
2018,04,26,12,08,21.80
2018,04,26,12,09,22.00
2018,04,26,12,10,22.10
2018,04,26,12,11,22.20
2018,04,26,12,12,22.30
2018,04,26,12,13,22.40
2018,04,26,12,14,22.40
2018,04,26,12,15,22.40
2018,04,26,12,16,22.50
2018,04,26,12,17,22.50
2018,04,26,12,18,22.50
2018,04,26,12,19,22.60
2018,04,26,12,20,22.60
2018,04,26,12,21,22.60
2018,04,26,12,22,22.60
2018,04,26,12,23,22.70
2018,04,26,12,24,22.60
2018,04,26,12,25,22.60
2018,04,26,12,26,22.60
2018,04,26,12,27,22.60
2018,04,26,12,28,22.50
2018,04,26,12,29,22.40
2018,04,26,12,30,22.40
2018,04,26,12,31,22.30
2018,04,26,12,32,22.20
2018,04,26,12,33,22.10
2018,04,26,12,34,22.10
2018,04,26,12,35,22.10
2018,04,26,12,36,22.10
2018,04,26,12,37,22.10
2018,04,26,12,38,22.10
2018,04,26,12,39,22.10
2018,04,26,12,40,22.20
2018,04,26,12,41,22.20
2018,04,26,12,42,22.30
2018,04,26,12,43,22.40
2018,04,26,12,44,22.40
2018,04,26,12,45,22.50
2018,04,26,12,46,22.50
2018,04,26,12,47,22.60
2018,04,26,12,48,22.60
2018,04,26,12,49,22.50
2018,04,26,12,50,22.50
2018,04,26,12,51,22.50
2018,04,26,12,52,22.50
2018,04,26,12,53,22.50
2018,04,26,12,54,22.40
2018,04,26,12,55,22.40
2018,04,26,12,56,22.40
2018,04,26,12,57,22.40
2018,04,26,12,58,22.40
2018,04,26,12,59,22.40
2018,04,26,13,00,22.40
2018,04,26,13,01,22.30
2018,04,26,13,02,22.30
2018,04,26,13,03,22.30
2018,04,26,13,04,22.30
2018,04,26,13,05,22.30
2018,04,26,13,06,22.40
2018,04,26,13,07,22.50
2018,04,26,13,08,22.60
2018,04,26,13,09,22.70
2018,04,26,13,10,22.80
2018,04,26,13,11,22.90
2018,04,26,13,12,23.00
2018,04,26,13,13,23.10
2018,04,26,13,14,23.10
2018,04,26,13,15,23.10
2018,04,26,13,16,23.10
2018,04,26,13,17,23.00
2018,04,26,13,18,22.80
2018,04,26,13,19,22.70
2018,04,26,13,20,22.60
2018,04,26,13,21,22.50
2018,04,26,13,22,22.50
2018,04,26,13,23,22.50
2018,04,26,13,24,22.60
2018,04,26,13,25,22.60
2018,04,26,13,26,22.70
2018,04,26,13,27,22.70
2018,04,26,13,28,22.80
2018,04,26,13,29,22.80
2018,04,26,13,30,22.80
2018,04,26,13,31,22.70
2018,04,26,13,32,22.70
2018,04,26,13,33,22.60
2018,04,26,13,34,22.60
2018,04,26,13,35,22.70
2018,04,26,13,36,22.70
2018,04,26,13,37,22.70
2018,04,26,13,38,22.70
2018,04,26,13,39,22.80
2018,04,26,13,40,22.80
2018,04,26,13,41,22.80
2018,04,26,13,42,22.80
2018,04,26,13,43,22.80
2018,04,26,13,44,22.90
2018,04,26,13,45,22.90
2018,04,26,13,46,23.00
2018,04,26,13,47,23.00
2018,04,26,13,48,23.10
2018,04,26,13,49,23.20
2018,04,26,13,50,23.20
2018,04,26,13,51,23.20
2018,04,26,13,52,23.10
2018,04,26,13,53,23.10
2018,04,26,13,54,23.00
2018,04,26,13,55,22.90
2018,04,26,13,56,22.80
2018,04,26,13,57,22.70
2018,04,26,13,58,22.60
2018,04,26,13,59,22.50
2018,04,26,14,00,22.50
2018,04,26,14,01,22.50
2018,04,26,14,02,22.50
2018,04,26,14,03,22.50
2018,04,26,14,04,22.50
2018,04,26,14,05,22.50
2018,04,26,14,06,22.50
2018,04,26,14,07,22.60
2018,04,26,14,08,22.60
2018,04,26,14,09,22.70
2018,04,26,14,10,22.80
2018,04,26,14,11,22.90
2018,04,26,14,12,23.00
2018,04,26,14,13,23.20
2018,04,26,14,14,23.30
2018,04,26,14,15,23.50
2018,04,26,14,16,23.60
2018,04,26,14,17,23.70
2018,04,26,14,18,23.90
2018,04,26,14,19,24.00
2018,04,26,14,20,24.10
2018,04,26,14,21,24.10
2018,04,26,14,22,24.20
2018,04,26,14,23,24.20
2018,04,26,14,24,24.30
2018,04,26,14,25,24.30
2018,04,26,14,26,24.30
2018,04,26,14,27,24.30
2018,04,26,14,28,24.30
2018,04,26,14,29,24.30
2018,04,26,14,30,24.20
2018,04,26,14,31,24.10
2018,04,26,14,32,24.00
2018,04,26,14,33,23.90
2018,04,26,14,34,23.90
2018,04,26,14,35,23.80
2018,04,26,14,36,23.70
2018,04,26,14,37,23.60
2018,04,26,14,38,23.50
2018,04,26,14,39,23.40
2018,04,26,14,40,23.30
2018,04,26,14,41,23.30
2018,04,26,14,42,23.20
2018,04,26,14,43,23.20
2018,04,26,14,44,23.20
2018,04,26,14,45,23.10
2018,04,26,14,46,23.10
2018,04,26,14,47,23.10
2018,04,26,14,48,23.10
2018,04,26,14,49,23.10
2018,04,26,14,50,23.10
2018,04,26,14,51,23.10
2018,04,26,14,52,23.10
2018,04,26,14,53,23.10
2018,04,26,14,54,23.10
2018,04,26,14,55,23.10
2018,04,26,14,56,23.20
2018,04,26,14,57,23.20
2018,04,26,14,58,23.20
2018,04,26,14,59,23.20
2018,04,26,15,00,23.20
2018,04,26,15,01,23.20
2018,04,26,15,02,23.20
2018,04,26,15,03,23.20
2018,04,26,15,04,23.20
2018,04,26,15,05,23.20
2018,04,26,15,06,23.30
2018,04,26,15,07,23.30
2018,04,26,15,08,23.30
2018,04,26,15,09,23.40
2018,04,26,15,10,23.30
2018,04,26,15,11,23.30
2018,04,26,15,12,23.30
2018,04,26,15,13,23.30
2018,04,26,15,14,23.30
2018,04,26,15,15,23.30
2018,04,26,15,16,23.30
2018,04,26,15,17,23.30
2018,04,26,15,18,23.20
2018,04,26,15,19,23.20
2018,04,26,15,20,23.20
2018,04,26,15,21,23.20
2018,04,26,15,22,23.30
2018,04,26,15,23,23.30
2018,04,26,15,24,23.40
2018,04,26,15,25,23.40
2018,04,26,15,26,23.40
2018,04,26,15,27,23.50
2018,04,26,15,28,23.50
2018,04,26,15,29,23.60
2018,04,26,15,30,23.60
2018,04,26,15,31,23.60
2018,04,26,15,32,23.60
2018,04,26,15,33,23.60
2018,04,26,15,34,23.60
2018,04,26,15,35,23.60
2018,04,26,15,36,23.60
2018,04,26,15,37,23.60
2018,04,26,15,38,23.60
2018,04,26,15,39,23.60
2018,04,26,15,40,23.60
2018,04,26,15,41,23.60
2018,04,26,15,42,23.60
2018,04,26,15,43,23.50
2018,04,26,15,44,23.50
2018,04,26,15,45,23.50
2018,04,26,15,46,23.60
2018,04,26,15,47,23.60
2018,04,26,15,48,23.60
2018,04,26,15,49,23.60
2018,04,26,15,50,23.60
2018,04,26,15,51,23.50
2018,04,26,15,52,23.50
2018,04,26,15,53,23.40
2018,04,26,15,54,23.40
2018,04,26,15,55,23.40
2018,04,26,15,56,23.50
2018,04,26,15,57,23.50
2018,04,26,15,58,23.50
2018,04,26,15,59,23.60
2018,04,26,16,00,23.60
2018,04,26,16,01,23.70
2018,04,26,16,02,23.70
2018,04,26,16,03,23.70
2018,04,26,16,04,23.70
2018,04,26,16,05,23.80
2018,04,26,16,06,23.80
2018,04,26,16,07,23.90
2018,04,26,16,08,23.90
2018,04,26,16,09,23.90
2018,04,26,16,10,24.00
2018,04,26,16,11,24.00
2018,04,26,16,12,24.00
2018,04,26,16,13,24.00
2018,04,26,16,14,24.00
2018,04,26,16,15,24.00
2018,04,26,16,16,24.00
2018,04,26,16,17,23.90
2018,04,26,16,18,23.90
2018,04,26,16,19,23.90
2018,04,26,16,20,23.90
2018,04,26,16,21,23.90
2018,04,26,16,22,23.90
2018,04,26,16,23,23.90
2018,04,26,16,24,23.90
2018,04,26,16,25,23.90
2018,04,26,16,26,24.00
2018,04,26,16,27,24.00
2018,04,26,16,28,24.00
2018,04,26,16,29,24.10
2018,04,26,16,30,24.10
2018,04,26,16,31,24.10
2018,04,26,16,32,24.10
2018,04,26,16,33,24.20
2018,04,26,16,34,24.20
2018,04,26,16,35,24.20
2018,04,26,16,36,24.20
2018,04,26,16,37,24.30
2018,04,26,16,38,24.40
2018,04,26,16,39,24.40
2018,04,26,16,40,24.50
2018,04,26,16,41,24.50
2018,04,26,16,42,24.60
2018,04,26,16,43,24.70
2018,04,26,16,44,24.80
2018,04,26,16,45,24.80
2018,04,26,16,46,24.90
2018,04,26,16,47,25.00
2018,04,26,16,48,25.10
2018,04,26,16,49,25.10
2018,04,26,16,50,25.10
2018,04,26,16,51,25.10
2018,04,26,16,52,25.10
2018,04,26,16,53,25.00
2018,04,26,16,54,25.00
2018,04,26,16,55,24.90
2018,04,26,16,56,24.90
2018,04,26,16,57,24.80
2018,04,26,16,58,24.80
2018,04,26,16,59,24.80
2018,04,26,17,00,24.80
2018,04,26,17,01,24.80
2018,04,26,17,02,24.80
2018,04,26,17,03,24.80
2018,04,26,17,04,24.80
2018,04,26,17,05,24.80
2018,04,26,17,06,24.90
2018,04,26,17,07,24.90
2018,04,26,17,08,24.90
2018,04,26,17,09,24.90
2018,04,26,17,10,24.90
2018,04,26,17,11,24.90
2018,04,26,17,12,24.90
2018,04,26,17,13,24.80
2018,04,26,17,14,24.80
2018,04,26,17,15,24.80
2018,04,26,17,16,24.80
2018,04,26,17,17,24.80
2018,04,26,17,18,24.80
2018,04,26,17,19,24.80
2018,04,26,17,20,24.90
2018,04,26,17,21,24.90
2018,04,26,17,22,25.00
2018,04,26,17,23,25.00
2018,04,26,17,24,25.10
2018,04,26,17,25,25.10
2018,04,26,17,26,25.00
2018,04,26,17,27,24.90
2018,04,26,17,28,24.80
2018,04,26,17,29,24.70
2018,04,26,17,30,24.60
2018,04,26,17,31,24.50
2018,04,26,17,32,24.50
2018,04,26,17,33,24.40
2018,04,26,17,34,24.30
2018,04,26,17,35,24.30
2018,04,26,17,36,24.30
2018,04,26,17,37,24.40
2018,04,26,17,38,24.40
2018,04,26,17,39,24.40